Wind_Speed
30 31 31 31 32 32 33 34 34 34 35 36 37 38 39 39 40 42 42 42 42 42 42 43 44 45 46 46 47 47 47 47 46 46 46 46 45 45 46 45 45 46 47 47
30 30 30 30 32 32 32 33 34 35 36 37 38 39 39 39 40 41 42 42 42 43 43 43 43 45 46 46 47 48 49 49 48 47 47 47 47 47 47 47 46 47 47 48
30 29 29 29 31 32 33 33 34 35 36 38 39 40 39 39 40 40 40 41 42 42 42 42 42 43 45 46 47 48 49 50 49 48 48 48 48 48 48 48 48 48 47 48
29 28 28 29 30 31 32 32 33 35 36 37 38 39 37 38 39 39 39 39 41 41 41 41 42 43 44 45 46 46 48 49 49 49 49 49 49 49 48 49 48 48 49 49
27 27 28 28 28 29 31 32 33 34 36 37 37 39 38 38 37 37 37 38 40 40 41 41 41 42 43 44 45 45 46 47 48 49 49 49 49 49 49 49 49 49 50 50
28 28 28 29 29 29 30 31 32 33 35 37 36 38 39 37 36 36 36 37 39 40 41 41 41 42 42 43 44 44 45 46 46 47 48 49 50 50 50 50 50 49 50 50
28 28 29 29 29 29 30 31 32 34 34 35 35 37 38 37 36 37 37 37 38 39 40 40 40 40 41 42 42 44 44 45 46 47 47 48 50 51 51 50 50 50 50 50
29 29 29 29 29 30 30 31 31 32 33 34 33 35 36 36 36 36 37 37 37 38 38 39 39 40 41 42 42 43 43 44 45 46 46 47 48 49 50 50 50 50 51 51
29 30 30 30 30 30 31 31 30 31 33 34 35 35 35 36 36 37 37 36 37 37 37 37 38 38 40 41 41 42 43 43 44 45 45 46 46 48 48 49 50 51 51 51
29 31 30 31 31 31 31 31 30 30 31 33 35 35 35 34 35 36 37 37 37 36 36 37 37 38 38 39 40 41 42 43 43 44 45 45 46 47 48 49 49 49 50 50
28 30 30 30 30 31 30 30 31 31 32 33 34 35 35 35 34 35 35 36 36 36 36 36 37 37 37 38 40 40 41 42 43 44 44 45 46 47 48 49 49 50 50 50
29 30 30 30 30 31 31 30 30 31 33 34 35 36 35 35 34 34 35 35 35 36 36 36 36 36 37 37 38 40 41 41 42 43 44 45 45 46 47 48 49 49 50 50
30 31 31 31 30 30 31 30 30 32 33 34 35 35 35 35 35 35 35 35 35 35 36 36 36 36 37 37 38 39 39 40 40 41 42 43 43 44 45 47 47 48 49 50
31 31 32 33 32 32 31 30 30 32 33 34 34 34 34 35 35 35 35 35 35 35 35 35 36 36 36 37 38 38 39 39 40 40 40 41 42 43 43 45 46 47 48 49
32 33 33 33 33 33 32 31 30 32 33 34 34 34 34 36 36 36 35 34 34 34 35 35 35 36 36 36 37 38 39 39 40 40 40 41 42 43 43 44 45 47 48 49
34 34 34 34 33 34 33 32 32 32 33 34 35 34 34 35 36 35 35 34 34 34 34 35 35 36 36 36 37 37 38 39 39 40 40 41 42 43 43 44 45 47 47 48
34 34 34 34 33 33 33 32 32 33 33 33 34 34 35 35 36 36 35 35 35 35 35 35 35 36 37 37 37 37 38 39 40 40 41 42 43 44 44 44 45 46 47 48
34 34 34 34 34 35 34 33 33 34 33 33 34 33 33 34 34 35 34 35 35 35 35 35 36 36 36 37 38 38 38 39 40 40 42 43 44 44 44 46 46 47 47 47
33 33 34 35 36 36 34 34 34 34 33 34 34 33 33 33 34 34 34 35 35 35 35 35 36 36 37 37 39 40 39 39 40 41 42 43 44 44 44 46 47 48 48 48
33 33 34 35 36 37 35 34 34 34 34 33 33 33 34 34 34 34 34 34 35 35 35 35 36 36 37 38 38 39 40 41 40 41 42 43 43 43 44 45 46 46 47 48
33 33 34 35 36 36 35 34 34 34 34 34 34 34 35 35 35 35 35 35 35 35 36 37 37 37 37 38 38 39 39 40 40 41 42 43 43 44 44 44 45 45 45 46
33 34 35 35 36 35 34 34 33 34 34 35 35 35 36 36 36 36 36 37 36 36 36 37 37 38 38 38 38 38 39 40 41 41 41 42 43 44 45 45 45 45 45 45
33 34 34 35 35 35 35 34 34 35 35 35 36 36 37 37 37 37 37 37 37 37 38 37 37 37 38 38 39 39 39 40 40 41 41 42 43 44 44 45 44 44 44 44
34 34 35 35 35 35 35 35 35 36 36 37 37 37 37 38 38 38 37 37 37 38 38 38 38 38 38 39 39 39 39 39 39 39 40 41 42 42 42 42 42 42 42 42
34 35 36 36 35 35 35 35 36 37 37 37 37 37 37 37 37 37 37 37 38 38 38 38 38 38 38 39 39 40 40 39 38 38 38 39 40 40 40 40 40 41 41 42
34 35 35 35 35 35 35 35 36 36 37 37 37 37 37 37 37 37 37 37 37 37 37 37 37 38 38 39 39 39 39 39 38 38 38 38 39 39 39 39 39 39 39 40
Wind_Direction
285 282 279 278 278 278 276 274 274 274 275 275 276 275 274 273 272 271 269 268 267 266 264 263 261 259 257 255 254 254 254 255 255 254 254 253 254 253 253 253 254 254 254 253
285 283 281 278 277 277 275 275 275 274 274 276 276 276 276 275 274 273 270 268 268 267 265 264 262 259 257 255 254 254 254 253 254 254 254 253 254 253 254 254 254 254 254 254
288 286 282 278 276 276 277 278 277 277 277 277 278 279 278 277 275 274 272 269 269 269 267 265 263 261 259 256 254 253 253 253 253 252 253 253 253 254 254 255 255 255 254 254
290 287 283 280 278 278 278 279 280 280 279 279 280 282 280 279 277 275 273 271 270 269 267 266 264 263 260 257 255 254 253 253 252 252 252 253 254 253 253 254 254 254 255 254
290 288 286 283 281 280 280 281 282 282 282 282 282 282 282 282 280 278 276 274 271 269 268 267 266 264 262 259 256 254 253 253 253 252 253 253 253 253 253 253 253 254 254 254
289 288 287 287 284 283 284 284 284 284 284 283 284 283 283 284 283 280 279 277 274 272 270 269 267 265 263 261 259 255 254 254 253 254 254 254 254 253 253 253 253 254 254 253
289 288 287 287 286 285 286 286 286 287 288 288 287 284 283 284 284 282 280 277 275 273 272 270 268 266 263 261 260 257 256 255 254 254 255 255 255 255 254 254 253 254 253 253
291 290 289 288 287 287 287 286 286 288 289 290 288 286 286 285 284 282 280 279 276 275 274 272 270 268 265 262 261 258 256 257 256 255 255 255 255 255 255 255 254 254 254 254
292 292 292 291 290 288 287 286 287 287 288 288 289 289 288 287 285 283 281 279 278 277 274 272 270 268 266 263 262 259 257 257 256 256 255 254 255 256 256 256 256 255 255 255
292 292 292 293 291 289 288 288 286 285 286 289 290 290 290 290 287 285 282 281 279 277 274 271 269 267 265 264 262 260 257 257 257 257 256 255 255 256 256 256 256 256 256 256
293 294 295 294 292 291 290 288 285 284 284 286 290 290 291 291 288 286 284 282 281 278 275 272 270 268 266 265 264 262 259 258 259 259 258 257 257 256 256 257 257 256 256 256
292 293 294 295 294 292 289 288 286 285 286 285 286 288 290 289 288 287 285 284 282 279 277 275 272 270 269 268 266 264 262 261 261 261 260 259 259 259 257 257 257 257 257 257
292 292 294 295 296 295 291 289 287 286 288 287 286 288 290 290 288 287 287 285 282 280 277 275 273 272 271 270 269 267 265 263 263 262 261 260 259 259 259 258 258 258 258 258
291 291 292 294 296 296 295 291 288 287 289 289 288 289 288 288 287 289 289 286 282 279 277 276 274 273 273 271 270 269 267 265 264 264 263 261 259 260 260 259 258 259 259 258
290 291 292 292 292 292 292 292 289 287 289 290 290 289 288 287 287 288 289 286 282 279 277 276 274 273 273 272 271 270 269 267 265 264 263 262 261 260 261 260 259 259 260 259
291 291 292 292 291 290 290 290 289 288 289 291 290 288 288 287 287 288 288 286 282 279 278 276 274 272 271 271 271 270 269 268 266 265 264 263 263 262 262 262 262 261 261 260
291 291 291 292 292 290 290 292 291 290 289 291 291 290 289 287 287 287 286 286 284 281 279 277 275 273 271 270 270 271 270 268 266 266 265 265 265 264 263 264 263 263 262 262
292 291 291 293 293 291 293 292 291 290 289 290 290 291 291 290 288 287 287 287 286 285 281 278 277 275 273 272 271 271 272 270 267 266 266 266 266 266 265 264 264 264 264 263
292 291 292 292 293 293 294 294 292 291 289 290 290 291 291 291 290 289 287 287 286 285 283 279 278 276 276 274 273 272 272 272 271 269 268 268 267 267 267 266 265 264 263 263
293 292 292 293 293 295 296 294 292 291 289 290 291 291 291 291 290 290 289 287 287 286 284 282 280 278 277 276 275 274 274 273 273 272 270 269 269 269 268 267 267 266 265 264
292 291 291 292 292 294 296 294 293 292 292 291 291 291 291 290 290 290 289 287 287 286 285 283 282 280 278 277 276 275 275 274 273 273 273 272 271 270 269 269 268 267 266 266
293 293 293 292 292 294 295 293 292 293 292 292 292 291 291 290 289 289 288 287 287 286 286 285 283 281 279 278 278 278 276 275 274 273 273 273 273 272 271 270 269 268 267 266
293 293 292 291 291 292 292 292 292 293 292 292 292 292 291 290 289 288 287 287 287 286 286 286 285 283 280 279 279 279 278 277 275 274 273 273 274 273 273 271 270 269 268 267
294 293 291 291 292 291 291 291 292 293 293 292 292 292 291 290 289 288 286 286 286 286 287 286 285 284 282 280 279 280 280 279 277 277 275 275 275 274 274 272 271 270 268 268
294 293 292 291 291 290 290 290 292 292 293 292 293 293 292 292 291 289 288 287 287 287 287 287 285 284 283 282 281 280 280 279 278 278 278 277 276 275 274 273 272 271 270 269
293 292 292 292 291 291 291 291 292 292 293 294 294 293 293 292 291 290 289 288 288 288 288 287 287 286 286 284 283 282 280 278 277 277 277 278 277 275 274 272 272 272 272 271
Height
5670 5669 5667 5667 5666 5666 5665 5664 5664 5665 5663 5663 5663 5662 5662 5662 5662 5661 5662 5662 5663 5664 5665 5667 5668 5669 5671 5673 5675 5678 5680 5682 5684 5686 5689 5691 5693 5695 5697 5699 5701 5704 5706 5708
5662 5661 5660 5658 5657 5656 5656 5655 5655 5655 5654 5653 5652 5652 5651 5651 5650 5650 5650 5651 5651 5652 5653 5654 5655 5656 5658 5661 5663 5665 5667 5670 5672 5674 5677 5679 5681 5683 5686 5688 5690 5692 5694 5696
5654 5654 5651 5650 5649 5648 5647 5647 5646 5645 5645 5643 5642 5641 5641 5640 5639 5639 5639 5639 5639 5640 5641 5641 5642 5644 5645 5647 5650 5652 5654 5656 5659 5661 5664 5667 5669 5671 5673 5675 5677 5679 5681 5684
5647 5646 5644 5642 5641 5640 5639 5639 5638 5636 5634 5633 5632 5629 5631 5629 5628 5628 5628 5628 5629 5629 5629 5630 5631 5632 5633 5635 5637 5639 5641 5643 5646 5649 5651 5654 5656 5659 5661 5663 5665 5667 5669 5671
5640 5638 5636 5635 5634 5632 5631 5630 5629 5627 5625 5623 5622 5619 5620 5618 5618 5618 5618 5618 5618 5618 5618 5619 5620 5620 5621 5623 5624 5627 5629 5631 5634 5636 5639 5641 5644 5646 5649 5651 5653 5655 5657 5659
5633 5631 5629 5627 5626 5624 5623 5622 5620 5617 5615 5613 5613 5610 5609 5608 5608 5608 5608 5608 5607 5607 5607 5607 5608 5608 5609 5611 5612 5614 5617 5619 5621 5623 5626 5628 5631 5633 5636 5638 5640 5642 5645 5647
5625 5624 5621 5620 5618 5617 5615 5613 5611 5608 5605 5604 5603 5600 5599 5599 5599 5598 5598 5598 5597 5597 5596 5596 5596 5597 5597 5599 5600 5602 5604 5607 5609 5611 5613 5615 5618 5620 5623 5625 5627 5630 5632 5634
5617 5616 5614 5612 5610 5608 5606 5604 5603 5600 5597 5595 5594 5591 5591 5591 5589 5588 5588 5587 5587 5586 5586 5585 5586 5586 5586 5587 5588 5590 5592 5594 5596 5598 5600 5603 5605 5607 5609 5612 5614 5616 5619 5621
5610 5609 5607 5604 5602 5600 5598 5595 5595 5592 5589 5586 5585 5584 5583 5582 5580 5579 5578 5578 5577 5576 5576 5575 5575 5575 5575 5576 5577 5578 5580 5582 5584 5586 5588 5590 5592 5594 5596 5598 5601 5603 5605 5608
5602 5601 5600 5597 5594 5592 5590 5588 5586 5583 5580 5578 5577 5575 5574 5572 5571 5570 5569 5568 5566 5566 5565 5565 5564 5564 5564 5565 5566 5567 5568 5570 5572 5573 5575 5577 5579 5581 5583 5585 5587 5589 5591 5593
5595 5593 5592 5589 5586 5584 5582 5580 5577 5575 5572 5570 5567 5569 5566 5564 5562 5561 5559 5558 5556 5555 5555 5554 5554 5554 5554 5555 5555 5556 5557 5558 5559 5561 5562 5564 5566 5568 5569 5571 5573 5575 5577 5579
5587 5585 5583 5581 5579 5576 5573 5572 5569 5568 5565 5562 5559 5561 5557 5555 5553 5551 5550 5548 5546 5545 5545 5544 5544 5544 5544 5544 5544 5545 5545 5546 5547 5548 5549 5551 5552 5554 5556 5558 5560 5562 5564 5566
5579 5577 5574 5572 5572 5569 5565 5563 5561 5559 5556 5553 5550 5553 5548 5546 5544 5542 5541 5539 5537 5535 5535 5534 5534 5534 5533 5533 5533 5534 5534 5535 5535 5536 5537 5538 5540 5541 5542 5544 5546 5548 5550 5552
5571 5569 5567 5565 5562 5559 5557 5555 5553 5550 5547 5545 5543 5542 5540 5537 5535 5533 5531 5529 5527 5526 5525 5524 5523 5523 5523 5523 5523 5522 5523 5523 5524 5524 5525 5526 5527 5529 5529 5530 5532 5534 5536 5538
5562 5561 5558 5556 5554 5551 5548 5547 5545 5542 5539 5536 5535 5533 5531 5528 5526 5524 5521 5519 5517 5516 5515 5514 5513 5513 5512 5512 5511 5511 5511 5511 5512 5512 5513 5514 5515 5516 5516 5517 5519 5520 5522 5523
5554 5552 5550 5548 5545 5542 5540 5538 5536 5534 5531 5528 5526 5524 5522 5519 5517 5514 5512 5509 5508 5506 5505 5504 5503 5502 5502 5501 5500 5500 5500 5500 5500 5500 5501 5501 5502 5502 5503 5504 5505 5506 5507 5509
5546 5543 5540 5538 5536 5533 5531 5531 5528 5525 5523 5520 5517 5516 5512 5510 5507 5505 5502 5500 5498 5496 5495 5493 5492 5491 5490 5490 5489 5489 5489 5488 5488 5488 5488 5489 5489 5489 5490 5491 5491 5492 5493 5494
5537 5534 5530 5528 5527 5523 5526 5522 5519 5515 5513 5511 5507 5505 5503 5500 5497 5495 5492 5490 5488 5486 5485 5483 5482 5480 5479 5479 5478 5478 5477 5477 5477 5476 5476 5476 5476 5476 5477 5477 5477 5478 5478 5479
5529 5526 5522 5519 5515 5514 5515 5512 5509 5506 5504 5502 5498 5496 5493 5490 5488 5486 5483 5481 5479 5477 5475 5473 5471 5470 5469 5468 5467 5466 5466 5465 5465 5464 5464 5463 5463 5463 5463 5463 5463 5463 5464 5465
5520 5517 5514 5510 5506 5505 5506 5502 5498 5496 5495 5493 5489 5487 5484 5481 5479 5478 5474 5471 5469 5467 5465 5463 5461 5460 5458 5456 5455 5455 5454 5453 5452 5452 5451 5450 5449 5449 5449 5449 5449 5449 5449 5450
5512 5509 5506 5502 5498 5496 5496 5493 5490 5488 5487 5483 5479 5477 5474 5471 5470 5467 5464 5462 5460 5457 5455 5453 5451 5449 5447 5445 5444 5443 5442 5441 5440 5439 5438 5437 5436 5436 5435 5435 5435 5435 5435 5436
5503 5500 5497 5493 5490 5491 5486 5483 5481 5479 5475 5472 5470 5467 5465 5462 5459 5457 5454 5452 5450 5447 5445 5442 5440 5438 5436 5434 5433 5431 5430 5428 5427 5426 5425 5424 5423 5422 5422 5421 5421 5421 5421 5422
5494 5492 5488 5486 5485 5481 5477 5474 5471 5468 5466 5463 5460 5457 5454 5452 5449 5446 5444 5442 5439 5437 5434 5432 5429 5427 5425 5423 5421 5419 5418 5416 5414 5413 5412 5411 5410 5409 5408 5407 5407 5407 5407 5408
5485 5482 5479 5476 5474 5471 5468 5465 5462 5459 5456 5453 5450 5447 5444 5441 5438 5436 5433 5431 5429 5426 5423 5421 5418 5416 5414 5411 5409 5407 5405 5404 5402 5401 5399 5398 5397 5395 5394 5394 5394 5394 5394 5394
5477 5473 5469 5466 5464 5461 5459 5455 5452 5449 5446 5443 5440 5437 5433 5431 5428 5425 5423 5420 5418 5415 5412 5409 5407 5404 5402 5399 5397 5395 5393 5391 5390 5388 5387 5385 5384 5383 5382 5381 5381 5381 5381 5381
5467 5464 5460 5458 5455 5452 5449 5446 5443 5439 5436 5433 5430 5427 5423 5420 5417 5415 5412 5409 5407 5404 5401 5398 5395 5393 5390 5387 5385 5383 5380 5379 5377 5376 5374 5373 5372 5370 5370 5369 5369 5368 5369 5369